Weather History for Cincinnati, OH

Change the Weather History Date:

Sunday, June 8, 2014

  Actual Average Record
Temperature  
Mean Temperature 66 °F -  
Max Temperature 75 °F 83 °F 96 °F (1999)
Min Temperature 59 °F 61 °F 48 °F (1998)
Cooling Degree Days 1    
Growing Degree Days 16 (Base 50)    
Moisture  
Dew Point 61 °F    
Average Humidity 82    
Maximum Humidity 97    
Minimum Humidity 68    
Precipitation  
Precipitation 0.04 in - - ()
Sea Level Pressure  
Sea Level Pressure 29.84 in    
Wind  
Wind Speed 6 mph (SW)    
Max Wind Speed 16 mph    
Max Gust Speed 24 mph    
Visibility 9 miles    
Events Rain    
Averages and records for this station are not official NWS values.
T = Trace of Precipitation, MM = Missing Value Source: NWS Daily Summary

Daily Weather History Graph

Daily Weather History Graph

Search for Another Location

Airport:

Trip Planner

Search our weather history database for the weather conditions in past years. The results will help you decide how hot, cold, wet, or windy it might be!

Date:

Astronomy

Jun. 08, 2014 Rise Set
Actual Time 6:11 AM EDT 9:02 PM EDT
Civil Twilight 5:39 AM EDT 9:34 PM EDT
Nautical Twilight 4:59 AM EDT 10:14 PM EDT
Astronomical Twilight 4:13 AM EDT 11:00 PM EDT
Moon 4:21 PM EDT (6/8) 3:02 AM EDT (6/8)
Length of Visible Light 15h 54m
Length of Day
14h 50m
Waxing Gibbous, 77% of the Moon is Illuminated
Jun 8
Waxing Gibbous
Jun 13
Full
Jun 19
Last Quarter
Jun 27
New
Jul 5
First Quarter

Hourly Weather History & Observations

Time (EDT) Temp. Dew Point Humidity Pressure Visibility Wind Dir Wind Speed Gust Speed Precip Events Conditions
12:53 AM 64.0 °F 60.1 °F 87% 29.83 in 10.0 mi Calm Calm - N/A   Mostly Cloudy
1:53 AM 66.0 °F 59.0 °F 78% 29.79 in 10.0 mi Calm Calm - N/A   Mostly Cloudy
2:53 AM 66.9 °F 59.0 °F 76% 29.76 in 10.0 mi SW 3.5 mph - N/A   Overcast
3:53 AM 64.9 °F 60.1 °F 84% 29.75 in 10.0 mi SSW 6.9 mph - 0.01 in   Overcast
4:53 AM 64.9 °F 61.0 °F 87% 29.73 in 10.0 mi South 4.6 mph - 0.03 in   Partly Cloudy
5:53 AM 66.0 °F 61.0 °F 84% 29.73 in 10.0 mi SW 4.6 mph - 0.00 in Rain Light Rain
6:53 AM 64.9 °F 63.0 °F 93% 29.74 in 10.0 mi Calm Calm - 0.00 in   Overcast
7:53 AM 69.1 °F 66.0 °F 90% 29.75 in 10.0 mi SSW 4.6 mph - N/A   Mostly Cloudy
8:53 AM 72.0 °F 66.0 °F 81% 29.76 in 10.0 mi SSW 10.4 mph - N/A   Overcast
9:02 AM 72.0 °F 66.0 °F 81% 29.77 in 10.0 mi SSW 10.4 mph - N/A   Overcast
9:29 AM 73.9 °F 64.9 °F 73% 29.76 in 10.0 mi SSW 15.0 mph 20.7 mph N/A   Scattered Clouds
9:53 AM 73.9 °F 64.0 °F 71% 29.75 in 10.0 mi SSW 15.0 mph - N/A   Mostly Cloudy
10:53 AM 72.0 °F 64.0 °F 76% 29.77 in 10.0 mi SSW 16.1 mph 21.9 mph N/A   Overcast
11:53 AM 70.0 °F 64.0 °F 81% 29.79 in 10.0 mi SW 13.8 mph 24.2 mph 0.00 in Rain Light Rain
12:53 PM 71.1 °F 64.0 °F 78% 29.79 in 10.0 mi SW 13.8 mph - 0.00 in   Overcast
1:53 PM 69.1 °F 63.0 °F 81% 29.82 in 10.0 mi West 12.7 mph - 0.00 in   Overcast
2:53 PM 66.0 °F 59.0 °F 78% 29.86 in 10.0 mi NW 15.0 mph - N/A   Overcast
3:53 PM 64.9 °F 59.0 °F 81% 29.90 in 7.0 mi North 12.7 mph 20.7 mph N/A   Overcast
4:53 PM 66.9 °F 59.0 °F 76% 29.91 in 7.0 mi North 9.2 mph 19.6 mph N/A   Overcast
5:51 PM 69.8 °F 60.8 °F 73% 29.91 in 10.0 mi NNE 8.1 mph - N/A   Scattered Clouds
5:53 PM 70.0 °F 60.1 °F 71% 29.91 in 10.0 mi North 9.2 mph - N/A   Scattered Clouds
6:53 PM 70.0 °F 59.0 °F 68% 29.91 in 10.0 mi NNE 5.8 mph - N/A   Clear
7:53 PM 70.0 °F 60.1 °F 71% 29.93 in 10.0 mi Calm Calm - N/A   Partly Cloudy
8:53 PM 64.9 °F 62.1 °F 90% 29.95 in 10.0 mi Calm Calm - N/A   Clear
9:53 PM 61.0 °F 60.1 °F 97% 29.96 in 8.0 mi Calm Calm - N/A   Partly Cloudy
10:53 PM 59.0 °F 57.9 °F 96% 29.98 in 5.0 mi South 3.5 mph - N/A   Clear
11:49 PM 59.0 °F 57.2 °F 94% 29.99 in 1.8 mi Calm Calm - N/A   Clear
11:53 PM 59.0 °F 57.9 °F 96% 29.98 in 1.5 mi Calm Calm - N/A   Clear